SCP
0 0 0 0 0 0 0 0 0 0 1 1 1 1 1 1 1 1 1 1 1 1 1 1 1 1 1 1 1 1 1 1 1 0 1 1 1 0 0 0 0 0 0
0 0 0 0 0 0 0 0 0 0 1 1 1 1 1 1 1 1 1 1 1 1 1 1 1 1 1 1 1 1 1 1 1 1 1 1 1 0 0 0 0 0 0
0 0 0 0 0 0 0 0 0 1 1 1 1 1 1 0 0 0 0 0 1 1 1 1 1 1 1 1 1 1 1 1 1 1 1 1 0 0 0 0 0 0 0
0 0 0 0 1 1 0 0 1 1 0 0 0 0 0 0 0 0 0 0 0 0 1 1 1 1 1 1 1 1 1 1 1 1 0 0 0 0 0 0 0 0 0
0 0 0 1 1 1 1 1 1 0 0 0 0 0 0 0 0 0 0 0 0 0 0 1 1 1 1 1 1 1 1 1 1 1 0 0 0 0 0 0 0 0 0
0 0 0 0 1 0 1 1 1 0 0 0 0 0 0 0 0 0 0 0 0 0 0 0 1 1 1 1 1 1 1 1 1 0 0 0 0 1 1 0 0 0 0
0 0 0 0 0 0 0 0 0 0 0 0 0 0 0 0 0 0 0 0 0 0 0 0 0 0 1 1 1 1 1 1 1 0 0 0 1 1 1 1 0 0 0
0 0 0 0 0 0 0 0 0 0 0 0 0 0 0 0 0 0 0 0 0 0 0 0 0 0 0 1 1 1 1 1 1 1 0 0 1 1 1 1 0 0 1
0 0 0 0 0 0 0 0 0 0 0 0 0 0 0 0 0 0 0 0 0 0 0 0 0 0 0 0 1 1 1 1 1 1 1 0 1 1 1 1 1 0 1
0 0 0 0 0 0 0 0 0 0 0 0 0 0 0 0 0 0 0 0 0 0 0 0 0 0 0 0 1 1 1 1 1 1 1 1 1 1 1 1 1 0 0
0 0 0 0 0 0 0 0 0 0 0 0 0 0 0 0 0 0 0 0 1 0 0 0 0 0 0 0 1 1 1 1 1 1 1 1 1 1 1 1 1 0 0
0 0 0 0 0 0 0 0 0 0 0 0 0 0 0 0 0 0 0 0 1 1 0 0 0 0 0 1 1 1 1 1 1 1 1 1 1 1 1 1 1 0 0
0 0 0 0 0 0 0 0 0 0 0 0 0 0 0 0 0 0 0 0 0 0 0 0 0 0 0 0 0 0 0 0 1 1 1 1 1 1 1 1 1 1 0
0 0 0 0 0 0 0 0 0 0 0 0 0 0 0 0 0 0 0 0 0 0 0 0 0 0 0 0 0 0 0 0 1 1 1 1 1 1 1 1 1 1 1
0 0 0 0 0 0 0 0 0 0 0 0 0 0 0 0 0 0 0 0 0 0 0 0 0 0 0 0 0 0 0 0 1 1 1 1 1 1 1 1 1 1 1
0 0 0 0 0 0 0 0 0 0 0 0 0 0 0 0 0 0 0 0 0 0 0 0 0 0 0 0 0 0 0 0 0 0 1 1 1 1 1 1 1 1 1
0 0 0 0 0 0 0 0 0 0 0 0 0 0 0 0 0 0 0 0 0 0 0 0 0 0 0 0 0 0 0 0 0 0 0 0 1 1 1 1 1 1 1
0 0 0 0 0 0 0 0 0 0 0 0 0 0 0 0 0 0 0 0 0 0 0 0 0 0 0 0 0 0 0 0 0 0 0 0 0 1 1 1 1 1 1
0 0 0 0 0 0 0 0 0 0 0 0 0 0 0 0 0 0 0 0 0 0 0 0 0 0 0 0 0 0 0 0 0 1 1 1 0 1 1 1 1 1 1
0 0 0 0 0 0 0 0 0 0 0 0 0 0 0 0 0 0 0 0 0 0 0 0 0 0 0 0 0 0 0 0 0 0 0 1 0 0 0 1 1 1 1
0 0 0 0 0 0 0 0 0 0 0 0 0 0 0 0 0 0 0 0 0 0 0 0 0 0 0 0 0 0 0 0 0 0 0 0 0 0 0 1 1 1 1
0 0 0 0 0 0 0 0 0 0 0 0 0 0 0 0 0 0 0 0 0 0 0 0 0 0 0 0 0 0 0 0 0 0 0 0 0 1 1 1 1 1 1
0 0 0 0 0 0 0 0 0 0 0 0 0 0 0 0 0 0 0 0 0 0 0 0 0 0 0 0 0 0 0 0 0 0 0 0 0 1 1 2 2 1 1
1 0 0 0 0 0 0 0 0 0 0 0 0 0 0 0 0 0 0 0 0 0 0 0 0 0 0 0 0 0 0 0 0 0 0 0 0 0 2 3 2 1 1
1 1 0 0 0 0 0 0 0 0 0 0 0 0 0 0 0 0 0 0 0 0 0 0 0 0 0 0 0 0 0 0 0 0 0 0 0 0 1 2 1 0 0
1 1 0 0 0 0 0 0 0 0 0 0 0 0 0 0 0 0 0 0 0 0 0 0 0 0 0 0 0 0 0 0 0 0 0 0 0 0 0 0 0 0 0
Wind_Speed
2 3 9 10 11 11 11 11 11 11 11 11 11 11 11 11 11 11 10 10 9 9 8 8 8 7 8 7 7 7 7 7 7 6 5 5 4 4 4 5 5 3 5
5 5 10 10 11 11 11 11 11 11 10 10 10 10 10 10 10 10 9 9 8 8 7 7 7 7 6 6 6 6 6 7 6 6 5 4 3 3 4 5 5 3 5
7 6 8 10 11 11 11 10 11 10 10 9 9 9 9 9 9 8 8 7 7 7 6 6 6 5 5 5 5 5 6 7 6 6 5 2 1 3 4 5 5 5 5
8 6 7 11 11 11 10 10 10 9 9 8 8 8 8 8 7 7 7 6 6 6 6 5 5 5 4 4 4 4 5 6 6 5 3 1 1 4 5 5 5 5 5
7 6 7 11 11 11 10 10 9 9 8 8 7 7 7 7 6 6 6 6 5 5 5 5 5 4 4 4 4 4 5 6 6 4 2 1 1 3 5 5 5 5 4
7 5 7 11 11 10 10 9 8 8 7 7 6 6 5 5 5 5 4 4 4 4 4 4 4 4 4 4 4 4 5 5 4 2 1 0 0 3 5 4 4 5 5
7 5 7 11 11 10 9 9 8 7 6 5 5 4 4 3 3 3 3 3 3 3 3 3 3 3 4 4 4 5 5 4 2 1 1 0 1 3 4 4 4 4 5
8 6 6 11 11 10 9 8 7 6 5 4 3 2 1 2 2 2 2 2 2 2 3 3 3 4 4 5 5 5 6 4 2 2 1 1 2 3 4 3 4 4 4
7 6 4 4 6 8 9 7 6 5 4 2 1 0 1 2 2 2 3 3 3 3 4 4 5 5 5 6 6 6 6 5 2 1 2 1 3 4 4 4 3 4 3
6 5 5 4 3 3 3 6 6 4 3 1 2 3 3 3 4 4 4 4 4 4 5 6 6 7 7 7 7 7 7 4 2 2 2 2 4 4 5 4 3 3 3
6 4 5 4 3 3 3 4 3 3 2 1 3 4 3 2 3 3 4 5 5 5 6 6 7 7 7 7 8 8 6 1 1 2 2 4 5 5 5 4 3 3 3
6 5 5 5 5 4 3 2 1 1 1 1 1 2 2 1 2 2 4 5 5 5 6 7 7 7 5 3 5 6 2 2 1 2 2 5 5 6 6 5 4 4 3
5 5 5 5 5 3 2 1 0 0 0 1 1 1 1 1 2 2 2 3 4 4 4 5 5 3 3 2 2 2 2 1 1 1 2 5 6 6 6 6 5 4 4
5 5 5 5 4 3 2 1 1 1 0 0 1 1 1 1 2 2 1 2 2 2 2 3 2 3 3 3 2 2 2 1 1 1 3 6 7 6 6 6 5 4 4
6 5 5 5 4 3 2 1 1 1 1 1 1 2 2 2 2 2 2 2 2 2 2 2 3 3 4 3 3 2 2 1 1 1 2 5 6 6 6 6 5 5 4
6 6 5 5 5 4 3 2 1 1 1 2 2 2 3 2 2 2 2 3 2 2 2 1 2 2 2 2 3 3 2 1 1 2 2 3 5 5 6 6 6 5 5
6 5 6 5 5 4 3 2 2 2 2 2 1 2 3 3 3 2 2 3 3 3 3 2 3 2 3 3 3 3 2 1 1 2 2 2 2 5 6 6 6 6 5
5 5 5 5 4 4 3 3 2 2 2 1 1 2 3 3 3 3 2 2 3 3 3 2 2 3 3 3 3 3 2 2 1 2 2 2 2 2 4 6 6 6 6
5 5 4 4 4 3 3 2 2 2 2 1 1 1 2 2 3 2 2 2 3 3 3 3 2 2 2 4 3 3 2 2 2 2 2 2 3 3 2 4 6 6 5
5 5 5 4 3 3 3 2 2 2 1 1 0 0 1 1 2 2 2 2 2 2 3 2 2 2 2 3 3 3 3 3 2 2 2 1 2 3 3 3 2 3 5
4 4 4 4 3 2 2 2 1 1 1 1 1 1 0 0 1 1 1 2 2 2 2 3 2 3 3 2 2 4 4 3 2 2 1 1 1 2 2 3 2 2 2
4 3 3 3 3 2 1 1 1 1 1 1 1 1 1 1 1 0 0 1 1 1 3 3 2 2 2 2 1 2 4 5 4 3 2 1 1 1 1 2 2 2 2
3 3 3 3 3 2 2 2 2 3 2 2 2 2 2 2 2 2 1 1 1 1 1 2 1 0 1 2 1 1 1 2 4 4 3 2 2 1 0 1 2 2 3
2 2 3 3 2 2 2 2 2 1 0 2 2 2 3 3 2 2 2 2 2 1 2 2 1 1 0 1 2 0 2 2 1 3 4 3 2 1 1 1 1 2 2
2 3 3 3 3 2 2 2 2 1 1 1 1 2 3 3 3 3 2 2 2 2 2 2 2 1 1 1 1 1 1 1 1 1 3 4 3 2 1 1 1 2 2
3 3 3 4 2 1 1 1 1 0 1 1 2 2 3 3 3 3 3 2 2 2 3 2 2 2 2 2 1 1 1 1 1 1 2 2 2 3 2 1 1 2 2
Wind_Direction
112 123 115 110 105 103 100 98 96 93 90 87 85 84 84 83 82 81 79 78 76 74 73 71 71 70 66 63 57 50 44 40 39 41 40 43 49 58 63 60 60 52 58
135 120 112 111 108 105 102 99 96 93 88 85 84 83 84 82 81 78 75 73 72 70 69 69 70 69 64 60 53 43 34 30 28 30 32 39 49 68 74 71 67 64 61
123 115 112 111 109 105 102 100 97 94 89 85 82 81 80 80 78 75 72 69 67 66 62 62 64 64 59 53 42 30 22 21 17 23 30 30 65 90 90 82 75 70 62
126 121 116 112 110 107 103 101 100 96 91 87 82 80 77 75 73 71 68 64 65 62 57 54 50 50 48 39 28 17 11 10 9 19 27 18 64 101 97 90 78 69 63
123 120 123 116 111 108 106 103 100 97 93 88 85 81 76 72 69 66 63 59 59 56 50 45 38 37 31 22 9 359 358 1 7 19 24 33 65 111 102 91 79 68 61
126 128 130 123 119 116 112 109 105 100 96 89 85 80 74 68 64 59 54 49 46 41 39 35 26 22 15 6 353 341 343 354 9 19 17 7 148 122 109 98 85 71 62
135 136 136 130 127 123 119 116 112 108 104 99 92 83 72 58 51 47 38 33 26 18 13 10 358 349 344 340 335 330 329 343 13 20 346 249 180 133 114 107 95 76 66
145 145 142 140 136 133 129 125 123 120 117 113 106 90 54 19 10 1 344 331 336 340 334 329 321 316 316 318 315 315 318 326 355 10 326 256 191 147 129 123 106 86 76
145 144 146 146 144 145 142 140 139 137 140 144 149 207 322 321 315 293 285 283 297 305 309 308 307 307 307 304 303 302 303 317 332 290 272 242 188 158 145 136 119 104 91
147 151 155 154 153 153 155 160 162 162 171 205 272 284 299 310 311 293 278 273 285 298 300 300 300 300 300 299 297 295 297 309 313 296 270 234 203 171 155 148 145 131 119
156 165 165 167 173 182 190 193 181 186 214 269 309 308 318 321 311 300 290 273 286 303 307 305 305 304 306 304 301 300 299 287 294 285 261 226 203 184 166 161 165 153 140
160 170 170 170 180 191 200 169 210 276 309 298 306 312 324 318 306 303 302 295 301 312 316 319 321 318 321 313 306 309 296 268 262 264 247 226 209 192 176 173 174 160 153
167 161 165 168 174 172 171 159 146 283 307 311 327 321 354 11 351 351 333 325 324 325 328 331 336 332 328 315 307 308 296 273 237 259 245 228 214 200 185 182 177 169 164
152 155 156 155 150 155 141 137 155 162 111 18 357 26 45 25 17 3 352 339 337 331 329 329 329 327 329 323 312 309 299 276 228 229 240 231 217 204 193 188 183 183 175
137 136 140 139 138 136 112 105 104 109 100 66 25 35 64 55 29 18 1 4 358 349 343 333 333 337 339 335 334 329 308 289 239 206 237 232 218 212 207 202 198 195 185
141 141 137 130 137 125 109 104 100 97 93 72 49 53 67 67 48 33 16 10 359 345 335 339 340 336 331 336 343 338 319 311 261 235 224 236 231 223 216 216 212 204 194
151 146 140 137 129 118 110 105 100 97 93 77 60 54 60 60 55 50 30 8 345 344 352 359 352 355 355 351 342 331 326 318 303 267 241 235 244 241 228 223 219 213 204
143 141 139 132 122 116 109 99 93 90 94 84 68 56 53 52 58 53 32 358 342 355 3 359 0 357 350 344 331 320 326 319 303 263 251 243 236 245 238 228 223 218 210
140 133 125 123 123 120 109 99 91 82 84 92 77 62 52 50 55 57 33 355 355 5 4 354 5 354 336 333 320 316 323 315 299 286 266 243 232 230 230 230 224 221 215
135 130 123 113 117 115 96 79 57 49 41 44 55 55 68 42 47 51 26 1 5 8 355 354 345 342 323 319 325 334 322 314 313 304 283 246 233 233 221 222 225 230 220
122 123 127 123 122 111 92 90 75 24 330 337 296 272 289 312 32 54 16 358 7 360 330 336 340 346 335 341 4 343 333 337 339 317 308 281 251 235 208 207 208 214 223
129 132 141 145 142 139 123 137 153 166 265 277 307 314 284 264 282 262 309 325 347 348 340 342 353 353 333 3 44 17 348 342 341 341 339 319 281 247 207 199 190 195 200
115 135 149 160 149 144 111 81 54 41 19 6 347 322 299 281 276 271 265 274 301 297 297 303 311 14 325 330 54 126 96 293 314 325 337 341 330 321 246 181 194 198 196
120 111 116 128 131 128 115 104 106 100 305 266 280 294 302 298 289 274 267 267 279 275 283 291 289 225 180 315 323 275 203 200 241 319 325 334 332 330 283 204 206 211 203
100 101 97 96 93 98 114 130 124 128 240 291 315 324 320 317 305 291 276 275 280 270 268 281 298 275 210 219 251 276 294 288 212 199 302 322 333 319 283 247 225 215 200
61 73 79 87 78 70 94 114 125 179 293 333 331 326 320 318 313 304 289 279 273 267 264 262 261 263 250 240 237 215 196 209 227 198 243 286 301 298 295 275 244 230 205